Dauntless Aviation
Greetings, Guest! To participate, [sign up for a free account] or [log in]
Airports South America Uruguay

Hospital Policial

Montevideo, URUGUAY

Airport Info
Edit

Location

Latitude / Longitude: 34°52'4"S / 56°9'6"W
  34°52.068'S / 56°9.114'W
  -34.8678 / -56.1519
Satellite photo at:
Airport distance calculator
From:
Weather Reports

METAR

SUMU
8.1nm NE
SUMU 280700Z 17004KT 9999 BKN026 08/03 Q1022 NOSIG

TAF

SUAA
7.8nm NW
TAF SUAA 280300Z 2806/2906 18006KT 9999 BKN025 TX12/2818Z TN07/2810Z BECMG 2900/2904 05010KT CAVOK
SUMU
8.1nm NE
TAF SUMU 280300Z 2806/2906 18006KT 9999 BKN025 TX12/2818Z TN07/2810Z BECMG 2900/2904 05010KT CAVOK
Safelog

 

Dauntless Aviation

© 2007-2014 Dauntless Aviation, all rights reserved
Information provided via PilotNav comes from a variety of official and unofficial data sources. As errors are possible, do not use PilotNav for primary flight planning purposes. Verify any information that you receive via PilotNav with current and canonical charts and other official documents. The material in this database is subject to database copyrights held by Dauntless Aviation and may not be copied without the express permission of Dauntless Aviation - licenses for use of part of all of this data are available for purchase; enquire via the Dauntless Aviation helpdesk. A number of mechanisms and markers exist in the database to protect against and identify infringement / copyright. Automated queries against this website are stictly prohibited, and all activity is logged and analyzed.